CZ-6A DEB, 54622

Orbit data source: Space-Track

CZ-6A DEB, 54622 is space debris in SSO originally from a launch on Fri, 11 Nov 2022 UTC launched from the Taiyaun Space Center, China (TSC). Debris objects in space refer to the collection of defunct objects orbiting the Earth. Examples of debris include non-operational satellites, rocket bodies, and fragments generated from explosions, collisions, or faulty payload assembly.

Loading next visibility...
Identifier
54622, 2022-151NY
Orbit
SSO
Country
Flag of CNCN / PRC
Related business
Manufacturer
SAST
Mission
Spacecraft
Bus & Motor
Unknown
Mass
Unknown
Launch date (UTC)
2022-11-11 (3 years ago)
Launch vehicle
Unknown
Launch site
Taiyaun Space Center, China (TSC)
Object type
Payload
Rocket body
Debris
Shape & HBR
Unknown shape, 0.1 m
Radar Cross Section
Small (<0.1 m²)

Expand to show TLE details & history
Last TLE update: 11 hours ago

TLE from 11 hours ago
0 CZ-6A DEB
1 54622U 22151NY  26130.48353906  .00001825  00000-0  88547-3 0  9991
2 54622  98.8111 135.9408 0044061  67.2152 293.3670 14.19074374178913
Epoch: 2026-05-10T11:36Z
TLE epoch observation values (Epoch: 2026-05-10T11:36:17.774Z)
Latitude
-0.00003°
Longitude
93.58078°
Altitude
818.917 km
Speed
7.45 km/s
True Right ascension
09h 03m 45s
True Declination
0° 00' 00"
Sunlit
Object was in daylight at epoch
Visualization orbit readout
Latitude
Unknown
Longitude
Unknown
Altitude
Unknown
Speed
Unknown
Apparent Right ascension
Unknown
Apparent Declination
Unknown
Sunlit
N/A
Visualization observer readout
Local Sidereal Time
06:28:01
Azimuth
Unknown
Elevation
Unknown
Doppler factor
Unknown
Orbital elements
Apogee altitude
857.39 km
Perigee altitude
793.909 km
Semi-major axis
7,203.787 km
Eccentricity
0.00441
Inclination
98.8111°
RAAN
135.9408°
Arg. of periapsis
67.2152°
True anomaly
292.9025°
Mean anomaly
293.367°
Eccentric anomaly
293.13485°
Mean motion
3.54978 °/min
Orbital period
101.41 mins
BSTAR
0.00088547
Loading maneuver chart data...
Computing Atmospheric mass density...
Loading historical data...
Loading historical data...
Loading historical data...
Loading historical data...
Loading historical data...
Loading historical data...
Loading historical data...

Documentation

Showing up to 5 results
|